CAPE
0 0 0 0 0 0 0 0 0 0 0 0 0 0 0 0 0 0 0 0 0 0 0 0 0 0 0 0 0 0 0 0 0 0 0 0 0 0 0 1 0 0 0
0 0 0 0 0 0 0 0 0 0 0 0 0 0 0 0 0 0 0 0 0 0 0 0 0 0 0 0 0 0 0 0 0 0 0 0 0 0 2 0 0 0 0
0 0 0 0 0 0 0 0 0 0 0 0 0 0 0 0 0 0 0 0 0 0 0 0 0 0 0 0 0 0 0 0 0 0 0 1 1 0 0 0 0 0 0
0 0 0 0 0 0 0 0 0 0 0 0 0 0 0 0 0 0 0 0 0 0 0 0 0 0 0 0 0 0 0 0 0 0 0 0 0 0 0 0 0 0 0
0 0 0 0 0 0 0 0 0 0 0 0 0 0 0 0 0 0 0 0 0 0 0 0 0 0 0 0 0 0 0 0 1 0 0 0 0 2 0 1 1 0 0
0 0 0 0 0 0 0 0 0 0 0 0 0 0 0 0 0 0 0 0 0 0 0 0 0 0 0 0 1 0 0 0 0 1 0 1 1 0 0 0 0 0 1
0 0 0 0 0 0 0 0 0 0 0 0 0 0 0 0 0 0 0 0 0 0 0 0 0 0 0 0 0 1 1 1 1 2 1 0 1 0 0 1 0 0 0
0 0 0 0 0 0 0 0 0 0 0 0 0 0 0 0 0 0 0 0 0 0 0 0 0 0 0 0 0 0 0 0 0 0 0 0 0 1 1 1 0 0 0
0 0 0 0 0 0 0 0 0 0 0 0 0 0 0 0 0 0 0 0 0 0 0 0 0 0 0 1 0 0 0 0 0 1 0 0 0 0 2 0 0 0 0
0 0 0 0 0 0 0 0 0 0 0 0 0 0 0 0 0 0 0 0 0 0 0 0 0 0 1 1 0 0 0 0 0 1 0 0 0 0 0 0 0 0 0
0 0 0 0 0 0 0 0 0 0 0 0 0 0 0 0 0 0 0 0 0 0 0 0 0 0 1 1 0 0 0 0 1 0 0 0 0 0 0 0 0 0 0
0 0 0 0 0 0 0 0 0 0 0 0 0 0 0 0 0 0 0 0 0 0 0 0 0 0 0 0 0 0 1 2 0 0 0 0 0 0 0 0 0 0 0
0 0 0 0 0 0 0 0 0 0 0 0 0 0 0 0 0 0 0 0 0 0 0 0 0 0 0 0 0 0 0 0 0 0 0 0 0 0 0 0 0 0 0
0 0 0 0 0 0 0 0 0 0 0 0 0 0 0 0 0 0 0 0 0 0 0 0 0 0 0 0 0 0 0 0 0 1 0 0 0 0 0 0 0 0 0
0 0 0 0 0 0 0 0 0 0 0 0 0 0 0 0 0 0 0 0 0 0 0 0 0 0 0 0 0 0 0 0 0 0 0 0 0 0 0 0 0 0 0
0 0 0 0 0 0 0 0 0 0 0 0 0 0 0 0 0 0 0 0 0 0 0 0 0 0 0 0 0 0 0 1 0 0 0 0 0 0 0 0 0 0 0
0 0 0 0 0 0 0 0 0 0 0 0 0 0 0 0 0 0 0 0 0 0 0 0 0 0 0 0 0 1 1 0 0 1 0 0 0 0 0 0 0 0 0
0 0 0 0 0 0 0 0 0 0 0 0 0 0 0 0 0 0 0 0 0 0 0 0 0 0 0 0 0 0 0 2 2 1 1 0 0 0 0 0 0 0 0
0 0 0 0 0 0 0 2 1 0 0 0 0 0 0 0 0 0 0 0 0 0 0 0 0 0 0 0 0 0 0 0 0 0 0 0 0 0 0 0 0 0 0
0 0 0 0 0 1 7 2 0 0 0 0 0 0 0 0 0 0 0 0 0 0 0 0 0 0 0 0 0 0 0 0 0 0 0 0 0 0 0 0 0 0 0
0 0 0 1 5 7 2 0 0 0 0 0 0 0 0 0 0 0 0 0 0 0 0 0 0 0 0 0 0 0 0 0 0 0 0 0 0 0 0 0 0 0 0
0 0 3 5 2 0 0 0 0 0 0 0 0 0 0 0 0 0 0 0 0 0 0 0 0 0 0 0 0 0 0 0 0 0 0 0 0 0 0 0 0 0 0
0 0 0 0 0 0 0 0 0 0 0 0 0 0 0 0 0 0 0 0 0 0 0 0 0 0 0 0 0 0 0 0 0 0 0 0 0 0 0 0 0 0 0
0 0 0 0 0 0 0 0 0 0 0 0 0 0 0 0 0 0 0 0 0 0 0 0 0 0 0 0 0 0 0 0 0 0 0 0 0 0 0 0 0 0 0
0 0 0 0 0 0 0 0 0 0 0 0 0 0 0 0 0 0 0 0 0 0 0 0 0 0 0 0 0 0 0 0 0 0 0 0 0 0 0 0 0 0 0
0 0 0 0 0 0 0 0 0 0 0 0 0 0 0 0 0 0 0 0 0 0 0 0 0 0 0 0 0 0 0 0 0 0 0 0 0 0 0 0 0 0 0
CIN
-0 -0 -0 -0 -0 -0 -0 -0 -0 -0 -0 -0 -0 -0 -0 -0 -0 -0 -0 -0 -0 -0 -0 -0 -0 -0 -0 -0 -0 -0 -0 -0 -0 -0 -0 -0 -0 -0 -0 -1 -0 -0 -0
-0 -0 -0 -0 -0 -0 -0 -0 -0 -0 -0 -0 -0 -0 -0 -0 -0 -0 -0 -0 -0 -0 -0 -0 -0 -0 -0 -0 -0 -0 -0 -0 -0 -0 -0 -0 -1 -1 -3 -3 -0 -0 -0
-0 -0 -0 -0 -0 -0 -0 -0 -0 -0 -0 -0 -0 -0 -0 -0 -0 -0 -0 -0 -0 -0 -0 -0 -0 -0 -0 -0 -0 -0 -0 -0 -1 -1 -1 -0 -1 -0 -0 -0 -0 -0 -0
-0 -0 -0 -0 -0 -0 -0 -0 -0 -0 -0 -0 -0 -0 -0 -0 -0 -0 -0 -0 -0 -0 -0 -0 -0 -0 -0 -0 -0 -0 -0 -0 -0 -1 -0 -1 -1 -1 -0 -0 -0 -0 -0
-0 -0 -0 -0 -0 -0 -0 -0 -0 -0 -0 -0 -0 -0 -0 -0 -0 -0 -0 -0 -0 -0 -0 -0 -0 -0 -0 -0 -0 -0 -1 -2 -1 -1 -3 -0 -0 -1 -0 -0 -0 -0 -0
-0 -0 -0 -0 -0 -0 -0 -0 -0 -0 -0 -0 -0 -0 -0 -0 -0 -0 -0 -0 -0 -0 -0 -0 -0 -0 -0 -0 -0 -0 -1 -1 -0 -1 -0 -0 -1 -0 -0 -0 -0 -0 -0
-0 -0 -0 -0 -0 -0 -0 -0 -0 -0 -0 -0 -0 -0 -0 -0 -0 -0 -0 -0 -0 -0 -0 -0 -0 -0 -0 -0 -0 -0 -1 -1 -1 -0 -0 -2 -0 -0 -0 -0 -0 -0 -0
-0 -0 -0 -0 -0 -0 -0 -0 -0 -0 -0 -0 -0 -0 -0 -0 -0 -0 -0 -0 -0 -0 -0 -0 -0 -0 -0 -0 -0 -0 -0 -0 -8 -9 -0 -0 -0 -0 -0 -0 -0 -0 -0
-0 -0 -0 -0 -0 -0 -0 -0 -0 -0 -0 -0 -0 -0 -0 -0 -0 -0 -0 -0 -0 -0 -0 -0 -0 -0 -0 -0 -0 -0 -0 -0 -0 -7 -0 -0 -0 -0 -0 -0 -0 -0 -0
-0 -0 -0 -0 -0 -0 -0 -0 -0 -0 -0 -0 -0 -0 -0 -0 -0 -0 -0 -0 -0 -0 -0 -0 -0 -0 -0 -0 -0 -0 -0 -0 -0 -9 -0 -0 -0 -0 -0 -0 -0 -0 -0
-0 -0 -0 -0 -0 -0 -0 -0 -0 -0 -0 -0 -0 -0 -0 -0 -0 -0 -0 -0 -0 -0 -0 -0 -0 -0 -0 -0 -0 -0 -2 -1 -3 -0 -0 -0 -0 -0 -0 -0 -0 -0 -0
-0 -0 -0 -0 -0 -0 -0 -0 -0 -0 -0 -0 -0 -0 -0 -0 -0 -0 -0 -0 -0 -0 -0 -0 -0 -0 -0 -0 -0 -0 -0 -1 -3 -0 -0 -0 -0 -0 -0 -0 -0 -0 -0
-0 -0 -0 -0 -0 -0 -0 -0 -0 -0 -0 -0 -0 -0 -0 -0 -0 -0 -0 -0 -0 -0 -0 -0 -0 -0 -0 -0 -0 -0 -0 -0 -0 -0 -0 -0 -0 -0 -0 -0 -0 -0 -0
-0 -0 -0 -0 -0 -0 -0 -0 -0 -0 -0 -0 -0 -0 -0 -0 -0 -0 -0 -0 -0 -0 -0 -0 -0 -0 -0 -0 -0 -0 -0 -0 -0 -0 -0 -0 -0 -0 -0 -0 -0 -0 -0
-0 -0 -0 -0 -0 -0 -0 -0 -0 -0 -0 -0 -0 -0 -0 -0 -0 -0 -0 -0 -0 -0 -0 -0 -0 -0 -0 -0 -0 -0 -0 -0 -0 -0 -0 -0 -0 -0 -0 -0 -0 -0 -0
-0 -0 -0 -0 -0 -0 -0 -0 -0 -0 -0 -0 -0 -0 -0 -0 -0 -0 -0 -0 -0 -0 -0 -0 -0 -0 -0 -0 -0 -0 -0 -0 -0 -0 -0 -0 -0 -0 -0 -0 -0 -0 -0
-0 -0 -0 -0 -0 -0 -0 -0 -0 -0 -0 -0 -0 -0 -0 -0 -0 -0 -0 -0 -0 -0 -0 -0 -0 -0 -0 -0 -0 -0 -0 -0 -0 -0 -0 -0 -0 -0 -0 -0 -0 -0 -0
-0 -0 -0 -0 -0 -0 -0 -0 -0 -0 -0 -0 -0 -0 -0 -0 -0 -0 -0 -0 -0 -0 -0 -0 -0 -0 -0 -0 -0 -0 -0 -0 -0 -0 -0 -0 -0 -0 -0 -0 -0 -0 -0
-0 -0 -0 -0 -0 -0 -0 -0 -0 -0 -0 -0 -0 -0 -0 -0 -0 -0 -0 -0 -0 -0 -0 -0 -0 -0 -0 -0 -0 -0 -0 -0 -0 -0 -0 -0 -0 -0 -0 -0 -0 -0 -0
-0 -0 -0 -0 -0 -0 -0 -0 -0 -0 -0 -0 -0 -0 -0 -0 -0 -0 -0 -0 -0 -0 -0 -0 -0 -0 -0 -0 -0 -0 -0 -0 -0 -0 -0 -0 -0 -0 -0 -0 -0 -0 -0
-0 -0 -0 -0 -0 -0 -0 -0 -0 -0 -0 -0 -0 -0 -0 -0 -0 -0 -0 -0 -0 -0 -0 -0 -0 -0 -0 -0 -0 -0 -0 -0 -0 -0 -0 -0 -0 -0 -0 -0 -0 -0 -0
-0 -0 -0 -0 -0 -0 -0 -0 -0 -0 -0 -0 -0 -0 -0 -0 -0 -0 -0 -0 -0 -0 -0 -0 -0 -0 -0 -0 -0 -0 -0 -0 -0 -0 -0 -0 -0 -0 -0 -0 -0 -0 -0
-0 -0 -0 -0 -0 -0 -0 -0 -0 -0 -0 -0 -0 -0 -0 -0 -0 -0 -0 -0 -0 -0 -0 -0 -0 -0 -0 -0 -0 -0 -0 -0 -0 -0 -0 -0 -0 -0 -0 -0 -0 -0 -0
-0 -0 -0 -0 -0 -0 -0 -0 -0 -0 -0 -0 -0 -0 -0 -0 -0 -0 -0 -0 -0 -0 -0 -0 -0 -0 -0 -0 -0 -0 -0 -0 -0 -0 -0 -0 -0 -0 -0 -0 -0 -0 -0
-0 -0 -0 -0 -0 -0 -0 -0 -0 -0 -0 -0 -0 -0 -0 -0 -0 -0 -0 -0 -0 -0 -0 -0 -0 -0 -0 -0 -0 -0 -0 -0 -0 -0 -0 -0 -0 -0 -0 -0 -0 -0 -0
-0 -0 -0 -0 -0 -0 -0 -0 -0 -0 -0 -0 -0 -0 -0 -0 -0 -0 -0 -0 -0 -0 -0 -0 -0 -0 -0 -0 -0 -0 -0 -0 -0 -0 -0 -0 -0 -0 -0 -0 -0 -0 -0
Wind_Speed
21 19 17 14 12 10 9 7 6 5 4 3 3 5 7 10 12 16 19 21 24 26 28 29 31 32 34 35 36 36 38 40 45 48 49 52 54 55 56 55 54 55 53
19 16 15 13 11 9 8 7 6 5 3 1 2 5 9 11 14 17 20 22 25 27 29 30 32 33 34 35 36 38 40 41 45 53 52 53 54 55 54 55 55 52 51
16 14 13 12 11 9 8 6 5 4 3 2 3 7 9 12 15 18 20 23 25 27 29 31 32 33 35 35 37 39 41 42 44 48 53 51 52 52 55 51 53 52 49
15 14 13 12 11 10 8 6 6 4 4 4 6 8 11 13 16 18 21 23 25 27 28 30 32 33 35 36 38 40 42 45 46 48 51 53 52 51 50 56 57 50 48
14 13 12 11 10 9 8 7 6 5 5 6 8 10 13 15 17 19 21 24 26 28 29 30 31 32 34 35 38 41 43 45 46 49 50 51 52 53 53 51 49 46 41
15 14 12 11 10 10 9 8 7 6 7 7 10 12 14 16 18 20 21 24 26 28 31 31 32 33 34 35 36 38 41 44 47 47 48 50 49 47 45 46 44 43 43
15 14 13 12 11 11 10 9 9 8 9 10 12 14 16 17 19 20 22 25 26 28 30 31 33 33 34 34 36 38 39 40 41 42 46 46 45 44 42 41 38 36 34
15 14 13 13 12 12 11 11 10 10 10 12 15 15 17 19 19 21 23 25 26 29 30 31 33 35 35 36 37 39 38 38 38 39 38 39 37 36 35 33 31 29 26
16 15 15 14 14 13 13 12 12 12 13 14 15 16 17 19 20 22 24 25 27 29 30 32 33 34 35 37 39 41 41 38 36 37 34 35 33 31 30 30 29 28 27
18 17 16 16 16 15 14 13 14 14 14 14 16 18 18 20 22 23 24 25 28 30 31 31 32 34 36 37 39 41 42 41 41 37 36 34 31 30 28 26 25 24 24
19 19 18 18 17 16 15 16 15 15 14 16 17 18 20 21 23 24 25 27 29 31 33 33 33 34 36 38 38 38 40 38 39 38 37 34 30 27 26 24 22 21 21
20 20 20 19 18 17 17 17 17 16 17 18 19 20 21 23 25 25 26 27 28 31 33 33 34 35 38 38 39 38 38 38 37 38 36 34 29 25 22 20 19 19 20
23 23 22 20 19 19 19 18 18 18 19 20 20 22 24 26 26 26 27 27 30 31 32 32 35 36 37 38 38 38 38 38 37 38 35 33 27 22 19 17 15 16 19
24 23 23 22 21 20 19 19 19 20 20 20 22 25 27 27 26 26 27 29 30 32 33 34 35 36 36 38 40 39 37 37 37 36 33 30 25 21 19 16 15 15 19
23 23 23 22 21 20 20 19 19 19 19 21 24 26 27 28 26 26 28 30 31 32 33 34 36 38 40 41 42 40 38 37 36 34 31 28 24 21 18 15 14 15 17
22 22 22 21 20 20 19 18 18 18 20 22 24 23 24 25 26 27 29 30 32 33 34 37 38 40 42 43 43 41 38 37 36 34 31 27 24 21 17 15 13 14 15
20 20 19 19 19 19 18 18 20 21 22 24 23 24 24 25 27 29 30 31 31 32 35 37 40 41 41 41 41 39 39 36 35 33 31 26 23 19 16 15 13 13 13
16 17 17 17 17 17 18 20 23 26 28 25 22 23 24 27 28 28 30 30 33 34 35 37 39 39 40 40 39 38 37 35 34 32 30 27 21 18 17 15 13 12 13
14 15 16 16 17 18 20 23 25 24 22 22 24 25 25 26 28 29 30 32 34 34 35 37 37 38 38 37 37 37 36 36 34 33 30 26 23 19 18 15 13 11 12
15 15 15 17 18 20 22 22 21 22 23 24 25 26 27 29 31 31 31 32 33 35 36 36 36 36 36 36 36 36 36 35 34 32 31 27 24 20 18 15 13 12 12
16 17 17 18 20 21 21 22 22 23 24 26 28 28 28 29 31 31 32 33 34 35 35 35 35 35 35 35 36 36 35 34 33 33 30 28 27 23 18 15 14 13 13
19 19 21 22 22 23 23 23 23 24 25 27 28 28 29 30 31 32 33 33 33 33 32 33 34 34 35 35 35 35 35 35 33 32 32 31 27 23 18 16 16 16 13
22 23 23 23 24 23 24 24 25 26 28 28 29 30 31 31 32 33 33 32 32 33 32 32 33 35 34 33 33 33 34 33 32 31 32 31 28 23 19 16 18 18 16
24 25 26 26 26 26 27 28 29 30 31 31 30 31 32 32 33 33 32 32 32 33 33 33 34 34 33 33 33 32 32 31 30 31 31 29 27 23 19 18 20 21 19
26 27 27 28 28 28 28 29 30 31 31 31 32 32 32 32 32 32 32 33 33 34 34 33 33 34 33 33 33 33 32 31 31 30 29 28 25 24 20 20 22 23 21
29 30 31 31 32 32 33 34 34 33 33 33 32 33 32 32 33 33 33 34 34 33 33 32 32 34 34 33 32 33 32 31 31 29 27 26 25 23 21 21 22 24 24
Wind_Direction
267 266 261 258 252 253 256 260 269 286 295 313 352 4 4 358 358 354 353 354 354 354 353 352 352 352 352 352 351 349 347 345 339 339 341 343 343 345 346 347 347 347 347
266 261 257 250 242 238 245 249 269 271 277 285 343 351 346 349 350 349 350 352 351 351 351 351 350 351 351 350 350 348 346 345 341 338 341 343 345 346 347 347 349 350 351
261 256 251 242 236 236 237 248 251 230 231 285 325 330 339 343 347 348 350 350 350 350 350 349 349 350 349 348 348 347 346 345 343 341 340 345 347 348 348 350 353 354 356
257 252 243 240 241 235 238 239 210 216 247 289 314 328 335 339 343 347 347 347 348 348 349 349 349 349 347 347 347 346 346 345 345 344 343 345 347 350 351 350 352 358 359
253 246 241 239 238 236 231 225 228 245 271 297 314 326 331 335 340 343 344 345 345 345 346 346 348 347 346 347 346 347 346 346 345 344 345 346 347 349 352 354 356 359 4
250 246 240 234 229 230 225 224 239 260 280 298 309 317 323 332 337 339 341 342 342 343 343 344 346 345 346 347 347 347 347 346 344 345 346 346 348 351 354 356 358 1 3
247 244 236 229 225 222 226 234 250 266 285 297 307 313 320 328 334 337 339 340 340 341 342 343 343 344 345 345 346 346 346 348 348 347 346 347 348 351 353 355 360 4 8
244 237 230 226 227 230 237 246 259 273 283 296 305 314 319 327 332 334 336 337 338 340 341 341 342 343 344 344 343 343 345 347 348 348 348 348 350 353 355 357 359 4 11
239 234 230 227 228 235 243 252 268 277 288 298 306 312 316 323 327 330 333 334 336 338 339 340 341 342 343 343 343 342 343 346 347 348 350 351 353 356 359 1 3 6 6
239 237 237 237 239 243 249 257 273 281 290 299 306 312 316 319 324 328 331 332 333 334 337 339 340 341 341 342 342 341 342 343 346 348 349 351 354 356 1 4 5 5 5
245 244 243 244 243 248 254 268 273 281 291 298 304 310 315 320 322 326 329 330 330 332 334 337 339 340 341 341 342 342 341 343 344 345 346 348 351 354 359 4 8 8 6
246 245 244 246 251 255 259 269 275 280 288 295 300 306 314 319 321 323 325 328 330 330 332 335 337 339 339 340 340 340 341 342 342 343 344 346 347 350 354 0 7 10 10
249 248 247 251 255 258 262 266 274 281 286 292 298 304 310 315 317 320 323 326 327 328 331 334 335 337 338 340 341 341 341 342 341 341 342 345 347 349 353 355 360 4 4
249 247 249 252 257 261 267 271 276 280 285 292 298 303 309 310 313 317 321 323 325 326 329 333 335 336 339 340 341 340 340 341 341 341 342 344 346 347 346 348 347 349 348
251 249 251 254 256 260 269 274 278 286 289 293 300 306 304 307 312 317 320 321 323 325 328 331 334 335 336 338 339 340 341 340 341 342 341 341 341 340 340 344 341 341 342
253 251 250 252 256 260 265 275 287 291 295 302 307 305 307 310 315 318 319 320 322 326 328 329 331 332 333 335 336 337 340 340 341 342 341 339 338 335 333 336 335 332 332
252 247 247 249 253 257 264 270 278 292 301 303 302 304 308 313 315 316 318 320 324 326 325 327 329 330 332 334 335 337 337 340 341 341 341 339 335 333 331 325 325 325 321
253 244 243 248 254 261 269 276 285 289 292 295 302 307 309 311 313 316 319 321 321 324 325 327 328 330 331 333 335 336 337 338 338 339 339 337 333 329 327 322 316 312 310
253 252 256 261 265 271 278 284 288 289 290 295 301 305 310 313 315 317 319 319 320 323 325 327 328 329 331 333 334 335 336 336 336 336 336 334 332 328 321 317 313 307 305
267 261 261 267 272 278 282 285 287 289 292 296 299 303 308 311 312 313 316 319 321 322 324 326 328 330 332 333 334 335 335 337 336 337 335 332 329 325 319 312 307 304 300
274 272 272 276 279 283 282 284 288 291 294 297 301 305 308 309 310 312 315 317 319 322 324 326 328 330 331 333 333 334 334 335 336 335 334 331 329 324 319 313 307 303 305
284 282 282 281 283 285 284 286 288 292 295 299 302 305 306 308 309 311 314 317 320 322 324 325 327 329 330 331 333 333 334 334 335 335 334 331 328 325 321 313 307 305 303
287 287 287 289 289 288 287 289 290 293 296 299 300 302 303 306 308 311 313 316 319 321 324 326 326 328 330 331 332 333 332 333 334 335 332 330 329 327 322 313 306 304 304
288 287 286 287 287 287 288 289 292 294 296 297 298 300 303 305 307 309 312 315 317 319 322 323 325 326 328 330 331 332 332 332 333 333 331 330 328 327 322 314 306 302 304
289 288 288 287 287 288 289 291 292 295 295 297 299 300 303 305 307 309 312 314 315 317 319 322 323 324 327 328 328 329 330 330 330 330 331 330 329 326 321 313 305 300 301
293 291 289 288 288 288 288 289 291 293 294 296 298 300 302 304 306 308 310 312 314 316 318 321 322 323 324 325 326 327 327 327 327 327 328 329 327 325 319 313 306 299 298